Location: *
(53.9002°N, 27.5624°E)
Time: 21:37:32
(UTC+00:00)

Cosmos 2084 - Pass Details

Date: 12 November 2019
Orbit: 557 x 626 km, 62.8° (Epoch: 05 December)

Event Time Altitude Azimuth Distance (km) Brightness Sun altitude
Rises 15:46:49 0° 309° (NW) 2,850 7.6 -13.2°
Reaches altitude 10° 15:49:07 10° 306° (NW) 1,932 6.7 -13.6°
Maximum altitude 15:53:25 61° 227° (SW) 664 3.9 -14.2°
Drops below altitude 10° 15:57:36 10° 147° (SSE) 1,879 5.8 -14.8°
Enters shadow 15:59:12 - 144° (SE) 2,521 6.4 -15.0°
